• In Lithuania
  • List of Countries
  • For 7 days
  • Water Temperature
  • Satellite Maps
  • Weather Map
  • Weather Widgets
  • user-avatar
    Login

    Hourly Weather Rostock

    Today, 22 February, Thursday

    Time Temperature Precipitation Wind Pressure Humidity
    00:00 -1°C° 0 mm 1 mps 769 mmHg 89%
    01:00 0°C° 0 mm 1 mps 769 mmHg 88%
    02:00 0°C° 0 mm 1 mps 769 mmHg 88%
    03:00 0°C° 0 mm 1 mps 769 mmHg 88%
    04:00 0°C° 0 mm 1 mps 769 mmHg 88%
    05:00 0°C° 0 mm 1 mps 769 mmHg 88%
    06:00 0°C° 0 mm 1 mps 769 mmHg 89%
    07:00 0°C° 0 mm 1 mps 769 mmHg 89%
    08:00 +1°C° 0 mm 1 mps 769 mmHg 85%
    09:00 -1°C° 0 mm 2 mps 769 mmHg 81%
    10:00 +1°C° 0 mm 2 mps 769 mmHg 78%
    11:00 +2°C° 0 mm 2 mps 769 mmHg 74%
    12:00 +1°C° 0 mm 3 mps 769 mmHg 70%
    13:00 0°C° 0 mm 4 mps 769 mmHg 73%
    14:00 0°C° 0 mm 4 mps 769 mmHg 72%
    15:00 0°C° 0 mm 4 mps 769 mmHg 70%
    16:00 0°C° 0 mm 5 mps 768 mmHg 69%
    17:00 -1°C° 0 mm 5 mps 768 mmHg 75%
    18:00 -2°C° 0 mm 5 mps 768 mmHg 81%
    19:00 -5°C° 0 mm 5 mps 768 mmHg 88%
    20:00 -5°C° 0 mm 5 mps 769 mmHg 86%
    21:00 -5°C° 0 mm 5 mps 769 mmHg 85%
    22:00 -5°C° 0 mm 5 mps 769 mmHg 84%
    23:00 -5°C° 0 mm 5 mps 769 mmHg 82%

    Tomorrow, 23 February, Friday

    Time Temperature Precipitation Wind Pressure Humidity
    00:00 -5°C° 0 mm 5 mps 769 mmHg 81%
    01:00 -6°C° 0 mm 5 mps 769 mmHg 80%
    02:00 -5°C° 0 mm 4 mps 769 mmHg 79%
    03:00 -5°C° 0 mm 4 mps 769 mmHg 78%
    04:00 -5°C° 0 mm 4 mps 769 mmHg 77%
    05:00 -7°C° 0 mm 4 mps 769 mmHg 76%
    06:00 -7°C° 0 mm 4 mps 769 mmHg 75%
    07:00 -7°C° 0 mm 4 mps 769 mmHg 75%
    08:00 -5°C° 0 mm 4 mps 769 mmHg 69%
    09:00 -4°C° 0 mm 4 mps 770 mmHg 64%
    10:00 -4°C° 0 mm 5 mps 770 mmHg 58%
    11:00 -2°C° 0 mm 5 mps 770 mmHg 56%
    12:00 -2°C° 0 mm 4 mps 770 mmHg 54%
    13:00 -1°C° 0 mm 4 mps 770 mmHg 52%
    14:00 -1°C° 0 mm 4 mps 770 mmHg 54%
    15:00 -1°C° 0 mm 4 mps 770 mmHg 56%
    16:00 -1°C° 0 mm 4 mps 770 mmHg 58%
    17:00 -2°C° 0 mm 4 mps 770 mmHg 64%
    18:00 -2°C° 0 mm 3 mps 770 mmHg 69%
    19:00 -4°C° 0 mm 3 mps 770 mmHg 75%
    20:00 -5°C° 0 mm 3 mps 770 mmHg 77%
    21:00 -5°C° 0 mm 3 mps 770 mmHg 78%
    22:00 -5°C° 0 mm 3 mps 770 mmHg 79%
    23:00 -4°C° 0 mm 3 mps 770 mmHg 80%

    Day after tomorrow, 24 February, Saturday

    Time Temperature Precipitation Wind Pressure Humidity
    00:00 -4°C° 0 mm 4 mps 770 mmHg 80%
    01:00 -3°C° 0 mm 4 mps 771 mmHg 80%
    02:00 -3°C° 0 mm 4 mps 771 mmHg 80%
    03:00 -4°C° 0 mm 5 mps 771 mmHg 79%
    04:00 -4°C° 0 mm 6 mps 771 mmHg 79%
    05:00 -4°C° 0 mm 6 mps 772 mmHg 76%
    06:00 -5°C° 0 mm 6 mps 772 mmHg 73%
    07:00 -5°C° 0 mm 6 mps 772 mmHg 70%
    08:00 -6°C° 0 mm 7 mps 773 mmHg 63%
    09:00 -5°C° 0 mm 8 mps 773 mmHg 57%
    10:00 -4°C° 0 mm 8 mps 773 mmHg 50%
    11:00 -4°C° 0 mm 8 mps 773 mmHg 50%
    12:00 -4°C° 0 mm 8 mps 773 mmHg 49%
    13:00 -2°C° 0 mm 8 mps 773 mmHg 48%
    14:00 -4°C° 0 mm 8 mps 773 mmHg 48%
    15:00 -4°C° 0 mm 8 mps 773 mmHg 48%
    16:00 -4°C° 0 mm 8 mps 773 mmHg 49%
    17:00 -4°C° 0 mm 7 mps 774 mmHg 54%
    18:00 -6°C° 0 mm 7 mps 774 mmHg 59%
    19:00 -6°C° 0 mm 6 mps 774 mmHg 64%
    20:00 -6°C° 0 mm 6 mps 775 mmHg 66%
    21:00 -6°C° 0 mm 6 mps 775 mmHg 67%
    22:00 -6°C° 0 mm 5 mps 775 mmHg 69%
    23:00 -6°C° 0 mm 5 mps 775 mmHg 70%

    25 February, Sunday

    Time Temperature Precipitation Wind Pressure Humidity
    00:00 -7°C° 0 mm 5 mps 775 mmHg 71%
    01:00 -7°C° 0 mm 4 mps 775 mmHg 72%
    02:00 -7°C° 0 mm 4 mps 775 mmHg 72%
    03:00 -7°C° 0 mm 4 mps 775 mmHg 73%
    04:00 -7°C° 0 mm 4 mps 775 mmHg 74%
    05:00 -7°C° 0 mm 4 mps 775 mmHg 75%
    06:00 -7°C° 0 mm 4 mps 775 mmHg 76%
    07:00 -7°C° 0 mm 4 mps 775 mmHg 76%
    08:00 -6°C° 0 mm 5 mps 775 mmHg 71%
    09:00 -5°C° 0 mm 5 mps 775 mmHg 66%
    10:00 -4°C° 0 mm 6 mps 774 mmHg 61%
    11:00 -4°C° 0.1 mm 6 mps 774 mmHg 59%
    12:00 -4°C° 0.1 mm 6 mps 774 mmHg 57%
    13:00 -4°C° 0.1 mm 6 mps 774 mmHg 55%
    14:00 -4°C° 0.1 mm 6 mps 774 mmHg 57%
    15:00 -4°C° 0.1 mm 6 mps 773 mmHg 59%
    16:00 -4°C° 0.1 mm 6 mps 773 mmHg 61%
    17:00 -5°C° 0.1 mm 6 mps 773 mmHg 66%
    18:00 -6°C° 0.1 mm 6 mps 773 mmHg 70%
    19:00 -6°C° 0.1 mm 6 mps 773 mmHg 74%
    20:00 -6°C° 0.1 mm 6 mps 773 mmHg 74%
    21:00 -6°C° 0.1 mm 6 mps 773 mmHg 73%
    22:00 -8°C° 0.1 mm 6 mps 773 mmHg 73%
    23:00 -8°C° 0.1 mm 6 mps 773 mmHg 73%

    26 February, Monday

    Time Temperature Precipitation Wind Pressure Humidity
    00:00 -7°C° 0.1 mm 5 mps 773 mmHg 73%
    01:00 -7°C° 0.1 mm 5 mps 773 mmHg 74%
    02:00 -7°C° 0.1 mm 5 mps 773 mmHg 75%
    03:00 -8°C° 0.1 mm 6 mps 773 mmHg 76%
    04:00 -8°C° 0.1 mm 6 mps 773 mmHg 77%
    05:00 -8°C° 0.1 mm 6 mps 773 mmHg 77%
    06:00 -8°C° 0.1 mm 6 mps 773 mmHg 77%
    07:00 -8°C° 0.1 mm 6 mps 773 mmHg 77%
    08:00 -8°C° 0.1 mm 7 mps 773 mmHg 75%
    09:00 -7°C° 0.1 mm 7 mps 773 mmHg 73%
    10:00 -7°C° 0.1 mm 7 mps 773 mmHg 71%
    11:00 -7°C° 0.2 mm 7 mps 772 mmHg 70%
    12:00 -7°C° 0.2 mm 7 mps 772 mmHg 69%
    13:00 -5°C° 0.2 mm 6 mps 772 mmHg 68%
    14:00 -6°C° 0.2 mm 6 mps 771 mmHg 69%
    15:00 -6°C° 0.2 mm 6 mps 771 mmHg 71%
    16:00 -6°C° 0.2 mm 6 mps 770 mmHg 73%
    17:00 -6°C° 0.2 mm 6 mps 770 mmHg 77%
    18:00 -8°C° 0.2 mm 6 mps 770 mmHg 81%
    19:00 -8°C° 0.2 mm 6 mps 770 mmHg 85%
    20:00 -8°C° 0.2 mm 5 mps 770 mmHg 86%
    21:00 -8°C° 0.2 mm 5 mps 770 mmHg 87%
    22:00 -9°C° 0.2 mm 4 mps 769 mmHg 89%
    23:00 -9°C° 0.2 mm 4 mps 769 mmHg 87%

    27 February, Tuesday

    Time Temperature Precipitation Wind Pressure Humidity
    00:00 -8°C° 0.2 mm 3 mps 769 mmHg 86%
    01:00 -8°C° 0.2 mm 3 mps 769 mmHg 85%
    02:00 -8°C° 0.2 mm 3 mps 768 mmHg 85%
    03:00 -8°C° 0.2 mm 3 mps 768 mmHg 84%
    04:00 -8°C° 0.2 mm 3 mps 768 mmHg 84%
    05:00 -8°C° 0.2 mm 3 mps 767 mmHg 84%
    06:00 -9°C° 0.2 mm 4 mps 767 mmHg 84%
    07:00 -10°C° 0.2 mm 4 mps 767 mmHg 84%
    08:00 -9°C° 0.2 mm 4 mps 767 mmHg 81%
    09:00 -9°C° 0.2 mm 4 mps 767 mmHg 79%
    10:00 -8°C° 0.2 mm 4 mps 767 mmHg 76%
    11:00 -8°C° 0.2 mm 4 mps 767 mmHg 73%
    12:00 -7°C° 0.2 mm 3 mps 766 mmHg 70%
    13:00 -6°C° 0.2 mm 3 mps 766 mmHg 67%
    14:00 -6°C° 0.1 mm 3 mps 766 mmHg 67%
    15:00 -6°C° 0.1 mm 3 mps 766 mmHg 66%
    16:00 -6°C° 0.1 mm 3 mps 766 mmHg 66%
    17:00 -7°C° 0.1 mm 3 mps 766 mmHg 71%
    18:00 -8°C° 0.1 mm 3 mps 766 mmHg 75%
    19:00 -9°C° 0.1 mm 3 mps 766 mmHg 80%
    20:00 -9°C° 0 mm 3 mps 766 mmHg 79%
    21:00 -11°C° 0 mm 4 mps 767 mmHg 79%
    22:00 -11°C° 0 mm 4 mps 767 mmHg 78%
    23:00 -11°C° 0 mm 4 mps 767 mmHg 77%
    Show more